Regional Weather Roundup
Issued by NWS Sioux Falls, SD

Home | Current Version | Previous Version | Graphics & Text | Print | Product List | Glossary Off
Versions: 1 2 3 4 5 6 7 8 9 10 11 12 13 14 15 16 17 18 19 20 21 22 23 24 25 26 27 28 29 30 31 32 33 34 35 36 37 38 39 40 41 42 43 44 45 46 47 48 49 50

000
ASUS43 KFSD 051510
RWRFSD

WEATHER ROUNDUP FOR SE SOUTH DAKOTA/SW MINNESOTA/NW IOWA
NATIONAL WEATHER SERVICE SIOUX FALLS SD
900 AM CST MON DEC 05 2016

NOTE: "FAIR" INDICATES FEW OR NO CLOUDS BELOW 12,000 FEET WITH NO
SIGNIFICANT WEATHER AND OR OBSTRUCTIONS TO VISIBILITY.


SDZ038>040-050-052>070-051600-
SOUTHEAST SOUTH DAKOTA

CITY           SKY/WX    TMP DP  RH WIND       PRES   REMARKS
BROOKINGS      CLOUDY    33  29  85 SE12      29.55F WCI  24
CHAMBERLAIN    PTCLDY    32  28  85 SE6       29.47F WCI  26
HURON          MOCLDY    32  28  85 SE9       29.51F WCI  24
MADISON        FAIR      32  32 100 S9        29.55S WCI  24
MITCHELL       PTCLDY    34  28  79 SE9       29.52F WCI  27
SIOUX FALLS    CLOUDY    38  30  73 S13       29.57F
WINNER         FAIR      43  25  49 SW12      29.46S
YANKTON        CLOUDY    39  28  65 SE12      29.55F
$$

MNZ071-072-080-081-089-090-097-098-051600-
SOUTHWEST MINNESOTA

CITY           SKY/WX    TMP DP  RH WIND       PRES   REMARKS
FAIRMONT       CLOUDY    35  31  85 S13       29.71F WCI  26
JACKSON        CLOUDY    34  30  86 S17G24    29.67S WCI  23
LUVERNE        CLOUDY    34  30  86 S20       29.61R WCI  22
MARSHALL       CLOUDY    34  30  85 SE9       29.62S WCI  27
MONTEVIDEO     PTCLDY    30  30 100 S9        29.65S WCI  22
PIPESTONE      PTCLDY    36  30  80 S8        29.57F
REDWOOD FALLS  CLOUDY    34  30  85 SE12      29.65F WCI  25
TRACY          CLOUDY    36  32  85 S9        29.62S
WINDOM         CLOUDY    37  30  75 S15G23    29.64S
WORTHINGTON    CLOUDY    36  30  79 S18       29.64R
$$

IAZ001>003-012>014-020>022-031-032-NEZ013-014-SDZ071-051600-
NORTHWEST IOWA

CITY           SKY/WX    TMP DP  RH WIND       PRES   REMARKS
CHEROKEE       CLOUDY    37  32  82 S14       29.69S
DENISON        CLOUDY    36  30  80 S16G25    29.71S
ESTHERVILLE    CLOUDY    34  32  92 S15       29.68F WCI  24
LE MARS        CLOUDY    37  32  81 S13       29.65F
ORANGE CITY    CLOUDY    36  32  87 S14       29.63S
SHELDON        CLOUDY    36  34  93 S13G18    29.63S
SIOUX CITY     MOSUNNY   40  30  67 S14       29.66F
SPENCER        CLOUDY    36  31  82 S17       29.67F
STORM LAKE     CLOUDY    36  32  87 S17       29.69F
$$

ABBREVIATIONS USED IN REMARKS
   TC - TEMPERATURE IN CELSIUS
  WCI - WIND CHILL INDEX
   HX - HEAT INDEX
  VSB - VISIBILITY




USA.gov is the U.S. government's official web portal to all federal, state and local government web resources and services.